Flag for Germany Weather past 2 weeks in Waldkraiburg, Bavaria, Germany

Now
87 °F

Scattered clouds.


Feels Like: 89 °F
Forecast: 62 / 73 °F
Wind: 3 mph from Northeast

Location: Muenchen Flughafen

Current Time: Jul 7, 2015 at 2:03:37 PM

Latest Report: Jul 7, 2015 at 1:00 PM


Visibility: 17 mi

Pressure: 29.87 "Hg

Humidity: 46%

Dew point: 64 °F

Location of WaldkraiburgLocation

Historic Weather in Waldkraiburg — Graph

°F

Waldkraiburg temperature yesterday

Maximum temperature yesterday: 83 °F (at 6:00 PM)
Minimum temperature yesterday: 67 °F (at 1:00 AM)
Average temperature yesterday: 75 °F

Past Weeks' High & Low Weather Summary

 TemperatureHumidityPressure
High92 °F (Jul 5, 3:00 PM)100% (Jun 25, 3:00 AM)30.27 "Hg (Jun 25, 3:00 AM)
Low44 °F (Jun 25, 5:00 AM)32% (Jul 5, 3:00 PM)29.74 "Hg (Jun 22, 11:00 PM)
Average68 °F71%30.10 "Hg
* Reported Jun 22 1:00 PM — Jul 7 1:00 PM, Waldkraiburg, Weather by CustomWeather, © 2015

Note: Actual official high and low records may vary slightly from our data, if they occured in-between our weather recording intervals... More about our weather records

Advertising

Waldkraiburg weather history for previous 24 hours

 ConditionsComfort  
Time TempWeatherWind HumidityBarometerVisibility
1:00 PM
Tue, Jul 7
87 °FScattered clouds.3 mph46%29.87 "Hg17 mi
12:00 PM87 °FPartly sunny.2 mph45%29.89 "Hg16 mi
11:00 AM83 °FPassing clouds.1 mph54%29.90 "Hg14 mi
9:00 AM76 °FSunny.2 mph76%29.96 "Hg11 mi
8:00 AM72 °FPassing clouds.1 mph82%29.98 "Hg7 mi
7:00 AM66 °FFog.1 mph97%30.01 "Hg7 mi
6:00 AM60 °FFog.1 mph100%30.03 "Hg1 mi
5:00 AM61 °FFog.1 mph99%30.03 "Hg2 mi
4:00 AM63 °FFog.No wind100%30.04 "Hg47 mi
3:00 AM64 °FFog.1 mph99%30.05 "Hg5 mi
2:00 AM64 °FClear.1 mph97%30.06 "Hg6 mi
1:00 AM65 °FClear.1 mph95%30.07 "Hg9 mi
12:00 AM67 °FClear.1 mph92%30.07 "Hg11 mi
11:00 PM
Mon, Jul 6
69 °FClear.1 mph87%30.07 "Hg16 mi
10:00 PM71 °FClear.2 mph83%30.07 "Hg16 mi
9:00 PM77 °FSunny.1 mph63%30.04 "Hg19 mi
8:00 PM82 °FPassing clouds.1 mph49%30.03 "Hg22 mi
7:00 PM83 °FPassing clouds.2 mph53%30.03 "Hg22 mi
6:00 PM83 °FPassing clouds.2 mph52%30.03 "Hg22 mi
5:00 PM83 °FPassing clouds.3 mph55%30.05 "Hg22 mi
4:00 PM83 °FScattered clouds.3 mph56%30.06 "Hg22 mi
3:00 PM83 °FScattered clouds.3 mph55%30.07 "Hg19 mi
2:00 PM82 °FScattered clouds.3 mph57%30.08 "Hg19 mi
Weather by CustomWeather, © 2015

See weather overviewHow to use our weather pages